This is the latest recevied weather packets stored in our database for station/object KF4PPJ. If no packets are shown the sender has not sent any weather packets the latest 10 day(s).
| Time | Temp. | Humidity | Pressure | Rain* | Wind** | Luminosity | Snow |
|---|---|---|---|---|---|---|---|
| 1778099096 | 13.33° C | 76% | 1023.7 hPa | 0 mm | - | 151 W/m² | - |
| 1778098792 | 13.33° C | 77% | 1023.7 hPa | 0 mm | - | 151 W/m² | - |
| 1778098490 | 13.33° C | 77% | 1023.6 hPa | 0 mm | - | 140 W/m² | - |
| 1778098186 | 13.33° C | 77% | 1023.5 hPa | 0 mm | - | 143 W/m² | - |
| 1778097883 | 13.33° C | 77% | 1023.4 hPa | 0 mm | - | 140 W/m² | - |
| 1778097579 | 13.33° C | 77% | 1023.4 hPa | 0 mm | - | 143 W/m² | - |
| 1778097276 | 12.78° C | 77% | 1023.5 hPa | 0 mm | - | 128 W/m² | - |
| 1778096973 | 13.33° C | 77% | 1023.5 hPa | 0 mm | - | 117 W/m² | - |
| 1778096670 | 13.33° C | 77% | 1023.4 hPa | 0 mm | - | 120 W/m² | - |
| 1778096367 | 12.78° C | 79% | 1023.4 hPa | 0 mm | - | 130 W/m² | - |
| 1778096064 | 12.78° C | 78% | 1023.6 hPa | 0 mm | - | 129 W/m² | - |
| 1778095760 | 12.78° C | 78% | 1023.3 hPa | 0 mm | - | 125 W/m² | - |
| 1778095457 | 12.78° C | 78% | 1023.4 hPa | 0 mm | - | 114 W/m² | - |
| 1778095154 | 12.78° C | 78% | 1023.2 hPa | 0 mm | - | 99 W/m² | - |
| 1778094851 | 12.78° C | 78% | 1023.3 hPa | 0 mm | - | 128 W/m² | - |
| 1778094548 | 12.78° C | 79% | 1023.5 hPa | 0 mm | - | 115 W/m² | - |
| 1778094244 | 12.78° C | 80% | 1023.2 hPa | 0 mm | - | 121 W/m² | - |
| 1778093941 | 12.78° C | 81% | 1023.3 hPa | 0 mm | - | 116 W/m² | - |
| 1778093638 | 12.78° C | 81% | 1023.4 hPa | 0 mm | - | 151 W/m² | - |
| 1778093335 | 12.22° C | 82% | 1023.5 hPa | 0 mm | - | 153 W/m² | - |
| 1778093032 | 12.22° C | 83% | 1023.5 hPa | 0 mm | - | 111 W/m² | - |
| 1778092729 | 12.22° C | 84% | 1023.3 hPa | 0 mm | - | 115 W/m² | - |
| 1778092424 | 12.22° C | 84% | 1023.3 hPa | 0 mm | - | 134 W/m² | - |
| 1778092122 | 12.22° C | 85% | 1023.4 hPa | 0 mm | - | 105 W/m² | - |
| 1778091819 | 12.22° C | 85% | 1023.4 hPa | 0 mm | - | 100 W/m² | - |
* Rain latest hour (hover to see other rain measurements)
** Current wind speed in m/s (hover to see current wind gust speed)